sat.trackr.live / text

‹ back to catalog

STARLINK-30858

NORAD 58358 · 2023-177H

PAYLOAD ACTIVE UNKNOWN

§ Identity

Operator
Country
US
Launch date
2023-11-18
Launch site
AFETR
Launch vehicle
Mass (kg)
RCS (m²)

Purposes: comms

External: N2YO · Heavens-Above · Gunter

§ Orbital elements

Epoch: 2026-09-20T21:16:46.026048Z

Period
94.27 min
Inclination
43.0023°
Eccentricity
0.0001283
Mean motion
15.27573396 rev/d
Perigee alt
482.2 km
Apogee alt
483.9 km
Semi-major
6,861.2 km
B*
4.1107e-5
RAAN
327.9534°
Arg perigee
282.4160°
Mean anomaly
77.6548°
Rev number
15,809

§ Raw data

STARLINK-308581 58358U 23177H   26263.88664382  .00000869  00000+0  41107-4 0  99922 58358  43.0023 327.9534 0001283 282.4160  77.6548 15.27573396158091

JSON: /api/v1/satellites/58358 · /tle

For live sub-satellite position, see the globe view (requires WebGL).

§ Visibility from observer

Set your observer location to see the next 7 days of passes ≥ 10°. The values pass through the URL so the page stays shareable.

No JS? Fill the form by hand. The geolocation button needs JavaScript.